Flag for Spain Weather past 2 weeks in Linares, Spain

Now
66 °F

Clear.


Feels Like: 66 °F
Forecast: 46 / 76 °F
Wind: 5 mph from Southwest

Location: Granada / Aeropuerto

Current Time: Apr 1, 2015 at 2:54:02 AM

Latest Report: Mar 31, 2015 at 11:00 PM


Visibility: 10 mi

Pressure: 30.30 "Hg

Humidity: 43%

Dew point: 43 °F

Location of LinaresLocation

Historic Weather in Linares — Graph

°F

Linares temperature yesterday

Maximum temperature yesterday: 88 °F (at 4:00 PM)
Minimum temperature yesterday: 46 °F (at 7:30 AM)
Average temperature yesterday: 71 °F

Past Weeks' High & Low Weather Summary

 TemperatureHumidityPressure
High88 °F (Mar 31, 4:00 PM)100% (Mar 18, 6:00 AM)30.39 "Hg (Mar 18, 6:00 AM)
Low30 °F (Mar 26, 6:00 AM)16% (Mar 29, 5:30 PM)29.53 "Hg (Mar 24, 6:00 AM)
Average56 °F66%29.98 "Hg
* Reported Mar 16 10:00 PM — Mar 31 11:00 PM, Linares, Weather by CustomWeather, © 2015

Note: Actual official high and low records may vary slightly from our data, if they occured in-between our weather recording intervals... More about our weather records

Advertising

Linares weather history for previous 24 hours

 ConditionsComfort  
Time TempWeatherWind HumidityBarometerVisibility
11:00 PM
Tue, Mar 31
66 °FClear.5 mph43%30.30 "Hg10 mi
10:30 PM66 °FClear.3 mph43%30.30 "Hg10 mi
10:00 PM73 °FClear.1 mph31%30.27 "Hg10 mi
9:30 PM73 °FSunny.3 mph31%30.27 "Hg10 mi
9:00 PM77 °FPassing clouds.3 mph26%30.24 "HgN/A
8:30 PM79 °FPassing clouds.7 mph24%30.24 "HgN/A
8:00 PM82 °FSunny.9 mph23%30.24 "Hg10 mi
7:30 PM82 °FPassing clouds.10 mph25%30.21 "HgN/A
7:00 PM86 °FSunny.10 mph22%30.21 "Hg10 mi
6:30 PM86 °FPassing clouds.10 mph24%30.21 "HgN/A
6:00 PM88 °FPassing clouds.6 mph21%30.21 "HgN/A
5:30 PM88 °FSunny.6 mph22%30.21 "Hg10 mi
5:00 PM88 °FSunny.2 mph21%30.24 "Hg10 mi
4:30 PM88 °FPassing clouds.6 mph22%30.24 "HgN/A
4:00 PM88 °FPassing clouds.3 mph22%30.24 "HgN/A
3:30 PM86 °FSunny.2 mph20%30.27 "Hg10 mi
3:00 PM86 °FSunny.1 mph22%30.27 "Hg10 mi
2:30 PM82 °FSunny.2 mph25%30.30 "Hg10 mi
2:00 PM81 °FSunny.2 mph28%30.33 "Hg10 mi
1:30 PM79 °FSunny.1 mph28%30.33 "Hg10 mi
1:00 PM77 °FSunny.1 mph34%30.36 "Hg10 mi
12:30 PM73 °FSunny.1 mph38%30.36 "Hg10 mi
12:00 PM72 °FSunny.No wind44%30.36 "Hg10 mi
11:30 AM68 °FSunny.No wind49%30.36 "Hg10 mi
11:00 AM64 °FSunny.1 mph52%30.36 "Hg10 mi
10:30 AM61 °FSunny.No wind63%30.39 "Hg10 mi
10:00 AM57 °FSunny.No wind67%30.39 "Hg10 mi
9:30 AM54 °FSunny.No wind77%30.39 "Hg10 mi
9:00 AM50 °FClear.No wind82%30.39 "Hg10 mi
8:30 AM48 °FClear.No wind87%30.36 "Hg10 mi
8:00 AM48 °FClear.1 mph82%30.36 "Hg10 mi
7:30 AM46 °FPassing clouds.2 mph93%30.36 "HgN/A
7:00 AM48 °FPassing clouds.No wind87%30.33 "HgN/A
6:30 AM48 °FClear.1 mph87%30.33 "Hg10 mi
6:00 AM48 °FClear.No wind87%30.33 "Hg10 mi
Weather by CustomWeather, © 2015

See weather overviewHow to use our weather pages